Vertical_Velocity
-0 -0 -1 -4 -3 -5 -0 1 2 1 3 2 -4 1 -1 3 1 -2 2 -0 -2 -2 -1 0 8 -3 -1
2 3 -3 -3 -0 -1 -2 -1 -2 -1 -3 5 2 6 0 -1 3 4 5 1 -3 -3 -3 -1 3 2 -1
-3 -3 -1 0 -0 0 1 2 1 1 0 -5 0 6 5 4 3 -2 -1 -0 1 -1 -0 -2 -4 -1 1
1 -0 -4 -4 -1 -0 -4 -2 2 2 1 1 -2 -4 -1 -2 0 4 4 -2 -1 3 1 1 -3 -1 1
0 1 1 -0 -5 -1 -6 3 -4 4 -2 2 2 2 6 -1 4 4 0 0 1 -0 -1 -2 -0 2 1
3 -2 -2 -0 -1 -4 -3 3 -12 -0 -2 0 0 2 2 5 0 1 1 2 -0 1 2 -1 -1 -1 -1
-2 -3 -4 -1 -6 -1 -2 -0 -2 3 -0 -5 1 -1 1 2 1 -0 1 -1 0 2 1 -0 0 -0 -1
2 0 2 -1 -5 -2 2 0 -2 1 1 -4 4 -2 -0 2 2 1 -0 -1 1 0 2 -0 2 -0 -1
-2 -1 3 1 -0 -4 2 3 -5 -8 -1 -3 2 -1 0 2 -1 0 -0 1 -0 -3 0 2 1 1 -1
-8 -5 -0 2 -3 2 -4 3 -1 -3 -1 -1 1 3 -2 -2 -1 1 -0 0 1 -1 1 2 2 0 0
4 -3 0 -1 1 -1 3 -3 -2 2 -2 -1 -1 0 2 0 -1 -1 0 -3 -0 0 0 0 1 2 -1
2 2 0 -1 -4 2 5 -5 0 1 -2 -3 1 2 2 -1 0 1 1 -2 -1 0 2 -1 0 1 2
1 -1 0 -4 -3 -1 0 -2 3 1 -2 -3 2 2 1 -1 -3 -1 1 -0 0 1 -1 -0 1 1 -0
2 -0 8 -5 -1 -6 -1 -2 0 2 -3 1 -0 1 1 3 1 -1 1 -1 0 1 1 -1 -0 -0 0
1 6 3 -8 -3 -5 1 -3 3 -3 -3 -0 -0 1 -0 2 -1 0 1 0 2 -1 -1 1 -1 0 0
-4 0 -3 -4 -2 -2 -3 3 1 -4 0 0 -1 -1 1 0 0 1 0 1 2 1 -1 -2 -1 1 0
-1 -0 -0 -1 -1 -3 -2 3 -2 -1 -0 -2 3 -0 -1 -1 -1 0 -1 1 1 1 2 -2 -1 3 -0
Height
1544 1543 1542 1542 1540 1540 1539 1537 1537 1537 1536 1535 1535 1534 1533 1533 1536 1534 1534 1536 1538 1539 1540 1540 1540 1541 1543
1541 1538 1536 1535 1534 1533 1531 1530 1531 1531 1531 1530 1533 1532 1532 1531 1530 1529 1530 1530 1533 1536 1537 1537 1537 1539 1541
1536 1535 1534 1531 1529 1527 1524 1524 1525 1524 1524 1524 1525 1527 1528 1528 1527 1529 1528 1530 1529 1531 1533 1534 1536 1537 1539
1533 1532 1528 1528 1525 1523 1521 1520 1521 1521 1520 1521 1520 1520 1522 1523 1526 1524 1524 1525 1526 1528 1529 1530 1532 1534 1536
1529 1526 1526 1523 1523 1521 1520 1518 1515 1516 1515 1516 1517 1517 1517 1517 1520 1521 1520 1521 1522 1523 1525 1527 1528 1530 1532
1523 1520 1520 1520 1519 1519 1519 1515 1514 1513 1511 1511 1512 1512 1513 1514 1515 1516 1516 1517 1518 1519 1521 1523 1525 1526 1528
1519 1517 1515 1513 1515 1514 1513 1512 1511 1511 1507 1507 1508 1505 1507 1507 1510 1512 1512 1513 1514 1515 1517 1519 1521 1523 1524
1515 1513 1511 1510 1509 1510 1507 1506 1507 1507 1504 1504 1504 1504 1506 1506 1507 1508 1509 1509 1509 1511 1513 1514 1516 1517 1519
1511 1510 1510 1508 1505 1505 1505 1500 1499 1501 1502 1501 1499 1498 1500 1501 1502 1503 1504 1504 1505 1506 1508 1509 1510 1513 1514
1509 1508 1506 1505 1502 1504 1503 1501 1499 1498 1498 1501 1499 1497 1498 1497 1498 1498 1499 1499 1500 1501 1503 1504 1506 1507 1509
1503 1500 1502 1501 1500 1501 1497 1499 1496 1496 1495 1498 1497 1496 1495 1494 1494 1494 1494 1494 1496 1497 1498 1500 1501 1503 1506
1497 1495 1494 1497 1498 1499 1495 1495 1495 1491 1492 1494 1494 1493 1492 1491 1491 1491 1491 1491 1492 1493 1495 1496 1497 1500 1502
1494 1491 1490 1491 1494 1494 1491 1490 1491 1488 1488 1490 1490 1489 1488 1488 1487 1487 1487 1487 1488 1489 1490 1492 1494 1496 1498
1492 1491 1485 1482 1489 1488 1486 1490 1488 1484 1485 1486 1486 1485 1484 1483 1482 1483 1483 1484 1483 1483 1485 1488 1490 1492 1495
1486 1488 1480 1481 1484 1483 1484 1485 1484 1480 1482 1482 1482 1481 1480 1479 1477 1478 1479 1479 1480 1481 1481 1483 1485 1488 1490
1482 1482 1479 1479 1481 1479 1481 1482 1478 1478 1479 1478 1478 1478 1476 1476 1474 1474 1475 1476 1476 1477 1478 1479 1481 1484 1486
1478 1476 1476 1476 1476 1475 1478 1476 1475 1475 1475 1476 1475 1474 1473 1471 1472 1471 1471 1472 1472 1473 1474 1475 1477 1480 1481